Air Quality Table

TIMESTAMP NO2 O3 PM2.5 TEMP HUM AIRPRES WS WD NO
2022-06-26 10:00 3.56 µg/m3 72.96 µg/m3 15.3 µg/m3 32.87 °C N/A 1,002.03 mbar 2.49 m/s 208.07 Deg 0.76 µg/m3
2022-06-26 09:00 4.27 µg/m3 82.43 µg/m3 14.45 µg/m3 32.27 °C N/A 1,001.87 mbar 2.21 m/s 221.1 Deg 0.79 µg/m3
2022-06-26 08:00 4.44 µg/m3 83.28 µg/m3 15.15 µg/m3 30.21 °C N/A 1,002.08 mbar 1.77 m/s 212.1 Deg 0.43 µg/m3
2022-06-26 07:00 18.24 µg/m3 60.33 µg/m3 14.79 µg/m3 28.15 °C N/A 1,001.85 mbar 1.12 m/s 180.15 Deg 1.85 µg/m3
2022-06-26 06:00 32.28 µg/m3 28.8 µg/m3 9.65 µg/m3 25.66 °C N/A 1,001.52 mbar 0.59 m/s 251.14 Deg 2.93 µg/m3
2022-06-26 05:00 19.53 µg/m3 41.39 µg/m3 6.87 µg/m3 25.72 °C N/A 1,001.13 mbar 0.62 m/s 301.85 Deg 0.16 µg/m3
2022-06-26 04:00 9.78 µg/m3 61.69 µg/m3 7.25 µg/m3 26.34 °C N/A 1,000.86 mbar 0.76 m/s 214.88 Deg -0.06 µg/m3
2022-06-26 03:00 5.25 µg/m3 68.12 µg/m3 10.82 µg/m3 26.35 °C N/A 1,000.73 mbar 0.66 m/s 265.68 Deg -0.05 µg/m3
2022-06-26 02:00 17.6 µg/m3 58.81 µg/m3 17.91 µg/m3 26.55 °C N/A 1,000.95 mbar 0.97 m/s 240.42 Deg -0.15 µg/m3
2022-06-26 01:00 41.01 µg/m3 35.57 µg/m3 17.04 µg/m3 26.5 °C N/A 1,001.19 mbar 0.7 m/s 239.8 Deg 1.01 µg/m3
2022-06-26 00:00 46.53 µg/m3 26.05 µg/m3 15.7 µg/m3 26.89 °C N/A 1,001.43 mbar 0.46 m/s 248.6 Deg 3.04 µg/m3
2022-06-25 23:00 52.69 µg/m3 21.86 µg/m3 15.38 µg/m3 27.33 °C N/A 1,001.73 mbar 0.46 m/s 245.83 Deg 1.9 µg/m3
2022-06-25 22:00 41.17 µg/m3 35.64 µg/m3 12.71 µg/m3 27.92 °C N/A 1,001.80 mbar 0.39 m/s 239.66 Deg 0.39 µg/m3
2022-06-25 21:00 26.71 µg/m3 60.67 µg/m3 9.93 µg/m3 28.7 °C N/A 1,001.61 mbar 0.45 m/s 259.9 Deg 0.49 µg/m3
2022-06-25 20:00 9.78 µg/m3 82.49 µg/m3 9.74 µg/m3 29.05 °C N/A 1,001.13 mbar 0.74 m/s 249.19 Deg 0.32 µg/m3
2022-06-25 19:00 9.1 µg/m3 83.35 µg/m3 8.87 µg/m3 30.36 °C N/A 1,000.97 mbar 1.31 m/s 222.83 Deg 1.05 µg/m3
2022-06-25 18:00 6.37 µg/m3 88.03 µg/m3 7.7 µg/m3 31.46 °C N/A 1,000.83 mbar 1.55 m/s 202.75 Deg 0.69 µg/m3
2022-06-25 17:00 4.2 µg/m3 90.01 µg/m3 9.08 µg/m3 32.46 °C N/A 1,000.84 mbar 1.79 m/s 223.67 Deg 0.69 µg/m3
2022-06-25 16:00 4.71 µg/m3 94.78 µg/m3 8.87 µg/m3 32.77 °C N/A 1,001.24 mbar 2.13 m/s 220 Deg 0.72 µg/m3
2022-06-25 15:00 15.11 µg/m3 97.03 µg/m3 8.61 µg/m3 34.16 °C N/A 1,001.31 mbar 2.22 m/s 196.95 Deg 2.03 µg/m3
2022-06-25 14:00 22.42 µg/m3 73.89 µg/m3 6.83 µg/m3 34.69 °C N/A 1,001.63 mbar 1.68 m/s 212.61 Deg 4.04 µg/m3
2022-06-25 13:00 22.19 µg/m3 69.45 µg/m3 5.09 µg/m3 34.37 °C N/A 1,002.05 mbar 1.36 m/s 223.92 Deg 4.63 µg/m3
2022-06-25 12:00 18.52 µg/m3 67.42 µg/m3 6.62 µg/m3 33.64 °C N/A 1,002.35 mbar 1.58 m/s 163.95 Deg 3.89 µg/m3
2022-06-25 11:00 18.38 µg/m3 63.24 µg/m3 16.61 µg/m3 33.21 °C N/A 1,002.38 mbar 1.51 m/s 93.57 Deg 3.83 µg/m3
2022-06-25 10:00 36.77 µg/m3 63.6 µg/m3 15.02 µg/m3 34.96 °C N/A 1,002.04 mbar 1.16 m/s 231.58 Deg 7.36 µg/m3
2022-06-25 09:00 43.24 µg/m3 48.54 µg/m3 10.52 µg/m3 33.55 °C N/A 1,001.92 mbar 0.69 m/s 243.13 Deg 13.06 µg/m3
2022-06-25 08:00 40.43 µg/m3 36.29 µg/m3 11.39 µg/m3 31.21 °C N/A 1,001.81 mbar 0.7 m/s 222.5 Deg 13.06 µg/m3
2022-06-25 07:00 35.25 µg/m3 33.12 µg/m3 12.52 µg/m3 28.73 °C N/A 1,001.67 mbar 0.43 m/s 176.79 Deg 6.3 µg/m3
2022-06-25 06:00 49.68 µg/m3 7.45 µg/m3 7.72 µg/m3 25.46 °C N/A 1,001.44 mbar 0.46 m/s 329.18 Deg 16.74 µg/m3
2022-06-25 05:00 39.91 µg/m3 9.48 µg/m3 6.07 µg/m3 24.73 °C N/A 1,001.17 mbar 0.47 m/s 287.91 Deg 4.04 µg/m3
2022-06-25 04:00 41.82 µg/m3 11.02 µg/m3 6.32 µg/m3 24.82 °C N/A 1,001.01 mbar 0.37 m/s 285.65 Deg 3 µg/m3
2022-06-25 03:00 34.34 µg/m3 17.17 µg/m3 5.58 µg/m3 25.03 °C N/A 1,001.12 mbar 0.43 m/s 297.02 Deg 0.65 µg/m3
2022-06-25 02:00 27.18 µg/m3 26.45 µg/m3 5.3 µg/m3 25.04 °C N/A 1,001.22 mbar 0.59 m/s 301.84 Deg -0.28 µg/m3
2022-06-25 01:00 24.25 µg/m3 29.59 µg/m3 10.84 µg/m3 25.92 °C N/A 1,001.51 mbar 0.65 m/s 294.42 Deg -0.29 µg/m3
2022-06-25 00:00 43.12 µg/m3 17.69 µg/m3 18.29 µg/m3 27.23 °C N/A 1,001.49 mbar 0.79 m/s 264.88 Deg 0.94 µg/m3
2022-06-24 23:00 53.46 µg/m3 6.08 µg/m3 19.52 µg/m3 27.57 °C N/A 1,001.49 mbar 0.38 m/s 291.43 Deg 13.19 µg/m3
2022-06-24 22:00 53.74 µg/m3 8.09 µg/m3 8.29 µg/m3 27.87 °C N/A 1,001.32 mbar 0.44 m/s 243.48 Deg 13.74 µg/m3
2022-06-24 21:00 21.86 µg/m3 35.64 µg/m3 5.58 µg/m3 28.46 °C N/A 1,001.01 mbar 0.5 m/s 201.66 Deg 0.84 µg/m3
2022-06-24 20:00 20.75 µg/m3 43.72 µg/m3 4.94 µg/m3 29.61 °C N/A 1,000.62 mbar 0.94 m/s 305.99 Deg 0.3 µg/m3
2022-06-24 19:00 7.57 µg/m3 57.27 µg/m3 5.58 µg/m3 32.35 °C N/A 1,000.15 mbar 0.66 m/s 345.74 Deg 0.38 µg/m3
2022-06-24 18:00 5.86 µg/m3 60.11 µg/m3 4.43 µg/m3 34.19 °C N/A 1,000.10 mbar 0.88 m/s 320.13 Deg 0.57 µg/m3
2022-06-24 17:00 3.52 µg/m3 79.76 µg/m3 5.53 µg/m3 36.24 °C N/A 1,000.12 mbar 1.03 m/s 340.52 Deg 0.38 µg/m3
2022-06-24 16:00 2.72 µg/m3 83.42 µg/m3 8.29 µg/m3 35.96 °C N/A 1,000.53 mbar 1.2 m/s 337.1 Deg 0.36 µg/m3
2022-06-24 15:00 3.28 µg/m3 84.8 µg/m3 4.64 µg/m3 35.86 °C N/A 1,001.05 mbar 1.48 m/s 260.38 Deg 0.38 µg/m3
2022-06-24 14:00 4.04 µg/m3 80.68 µg/m3 2.67 µg/m3 35.03 °C N/A 1,001.32 mbar 1.5 m/s 329.93 Deg 0.61 µg/m3
2022-06-24 13:00 5.67 µg/m3 80.29 µg/m3 2.5 µg/m3 34.27 °C N/A 1,001.54 mbar 1.52 m/s 333.15 Deg 0.94 µg/m3
2022-06-24 12:00 6.41 µg/m3 85.59 µg/m3 3.01 µg/m3 33.16 °C N/A 1,001.72 mbar 1.36 m/s 333.87 Deg 1.01 µg/m3

It is to be noted that the data is provisional and subject to quality assurance procedures. For validated data kindly refer your request to contact.air@era.org.mt